Temp_Advection
nan nan nan nan nan nan nan nan nan nan nan nan nan nan nan nan nan nan nan nan nan nan nan nan nan nan nan nan nan nan nan nan
nan -0 0 0 0 0 1 0 0 -0 -0 -0 0 0 -0 -0 -0 0 0 0 0 0 -0 -0 0 0 0 0 0 0 -0 nan
nan 0 -0 -0 -0 0 -0 -1 -0 -1 -0 0 0 0 0 0 0 0 0 0 0 0 -0 0 0 0 0 0 0 0 0 nan
nan -0 -0 -0 -0 -1 -1 -1 -1 -0 1 1 0 0 -0 -0 0 0 0 0 0 0 0 0 0 0 0 -0 -0 -0 -0 nan
nan -0 -1 -1 -0 -0 -0 0 0 0 1 1 -0 -0 -0 -0 0 0 0 0 0 0 1 0 0 0 0 0 0 -0 -0 nan
nan -1 -0 1 1 -0 1 1 -0 1 1 0 0 0 0 0 1 1 0 1 1 1 1 0 0 0 0 -0 0 0 0 nan
nan 0 1 1 -0 0 0 -0 1 1 0 0 1 1 0 0 0 1 1 1 1 1 0 1 1 0 -0 -0 -0 -0 -0 nan
nan -0 -0 -0 -0 0 0 0 1 0 0 -0 1 1 -0 -0 0 1 1 1 1 1 1 0 1 1 0 -0 -0 -0 0 nan
nan -0 0 -0 0 0 0 1 1 -0 -0 0 1 1 -0 0 1 1 2 2 1 1 1 2 1 0 0 0 -0 -1 0 nan
nan 1 0 0 0 1 0 0 -0 -0 1 1 1 0 -0 1 1 2 2 1 1 0 1 1 1 1 -0 -0 0 -0 0 nan
nan -0 -0 0 0 1 0 0 -0 1 1 1 0 -0 1 1 1 1 0 0 0 1 1 1 1 0 0 0 0 0 0 nan
nan -0 -0 -0 0 1 1 1 0 1 0 -0 -0 1 1 0 1 1 1 1 1 1 1 0 0 0 0 0 0 0 0 nan
nan 0 0 0 0 1 1 0 0 0 -0 -0 2 2 0 1 1 1 2 2 1 1 0 0 0 0 -0 -0 0 0 0 nan
nan 1 0 0 1 1 1 0 0 0 1 2 3 1 1 2 2 2 1 1 1 0 0 0 0 -0 -0 0 0 0 0 nan
nan 0 0 1 1 1 1 1 2 2 2 2 1 2 2 1 1 2 1 1 1 0 0 0 -0 -1 -0 0 0 0 0 nan
nan 0 0 1 1 1 3 3 2 1 2 1 2 2 1 1 1 1 0 1 0 0 0 0 0 -1 -0 0 0 0 0 nan
nan 0 0 2 3 2 1 1 1 1 1 2 2 2 1 1 1 1 1 1 0 -0 0 0 0 0 0 -0 0 0 0 nan
nan 0 0 0 1 0 1 1 1 2 2 2 1 1 1 1 1 0 0 -0 0 0 0 -0 -0 0 0 0 0 0 0 nan
nan nan nan nan nan nan nan nan nan nan nan nan nan nan nan nan nan nan nan nan nan nan nan nan nan nan nan nan nan nan nan nan
Wind_Speed
30 32 32 31 30 29 29 29 28 28 29 27 26 26 23 20 18 14 11 17 18 17 15 14 13 11 10 9 12 14 14 15
30 29 32 34 31 32 32 30 32 32 32 30 31 29 25 23 19 14 13 15 16 17 16 13 10 8 9 12 14 13 14 15
35 34 35 33 32 33 35 34 34 34 34 32 32 29 26 22 18 15 14 15 16 16 14 11 10 10 12 13 13 13 15 16
38 41 39 37 37 35 35 37 36 35 32 31 30 30 26 25 22 17 15 15 14 14 13 12 12 13 12 13 15 16 16 18
42 44 43 41 41 38 34 37 39 37 33 34 34 32 29 25 22 18 17 17 14 16 15 14 14 13 12 13 15 18 19 19
48 49 45 42 44 41 39 40 37 36 35 33 31 31 27 23 21 20 19 18 18 18 15 15 14 13 12 13 18 19 21 22
46 46 44 45 46 43 42 39 36 33 30 30 29 33 28 22 19 22 21 20 20 19 18 16 15 12 9 16 19 21 23 22
48 45 45 45 45 43 40 39 38 33 33 25 26 29 25 22 20 24 25 24 24 23 20 16 13 12 20 18 20 22 21 20
46 48 47 46 42 39 39 37 39 33 33 29 27 28 25 22 23 25 27 28 29 29 24 23 18 19 16 17 18 22 22 19
44 45 46 43 39 37 36 32 30 28 30 27 27 29 27 28 29 29 28 29 27 21 19 19 23 19 23 14 16 18 17 16
37 42 41 37 34 32 32 26 25 25 30 28 28 29 28 31 29 27 31 32 27 27 26 22 25 17 10 14 17 17 17 19
19 24 31 31 32 29 29 26 24 26 27 26 30 29 31 30 28 30 31 31 32 28 25 17 14 9 12 16 19 18 19 20
17 16 21 27 28 27 29 29 28 28 28 30 27 28 27 27 30 30 30 29 23 20 15 12 10 11 14 18 18 18 19 20
23 25 22 22 25 29 28 30 28 29 29 28 29 30 29 29 28 25 22 20 15 10 11 8 9 14 18 18 20 19 21 23
25 27 27 27 31 30 27 31 32 29 28 29 28 28 28 24 23 22 20 15 12 10 6 9 10 18 22 21 20 21 22 23
23 26 28 30 32 32 30 30 30 30 30 29 29 28 24 22 21 14 11 10 9 9 6 12 18 24 20 20 20 22 22 24
2 10 24 30 33 31 28 25 27 27 27 28 26 24 21 19 18 18 17 14 7 15 23 23 21 19 20 21 22 24 23 23
5 4 3 4 14 21 26 25 25 25 25 23 24 23 22 20 18 11 3 13 22 21 15 19 20 21 21 20 22 23 24 22
7 4 1 3 6 13 17 20 22 21 22 25 25 26 23 14 2 14 19 15 12 12 16 22 22 20 22 22 23 24 22 21
Wind_Direction
206 201 197 196 198 198 198 195 194 195 199 213 217 212 213 217 212 220 238 233 227 224 225 229 233 240 266 300 307 314 335 343
205 201 200 201 202 205 204 202 202 206 205 212 213 216 219 215 216 236 236 220 222 223 222 228 237 264 292 298 309 327 335 335
208 205 204 206 205 207 208 209 210 212 215 217 215 218 221 224 234 244 234 222 214 218 228 242 261 280 294 303 314 319 322 328
208 208 209 208 207 208 214 217 216 217 218 218 220 223 225 228 236 235 233 219 219 230 243 253 268 285 293 306 306 307 315 322
213 212 213 211 210 210 211 213 215 216 218 221 227 230 229 241 256 254 232 224 227 237 242 255 270 279 292 296 306 314 319 317
211 212 214 215 214 214 212 213 215 217 220 226 232 233 240 251 255 237 225 225 227 234 245 259 262 265 278 301 311 305 307 307
215 215 216 217 217 217 216 218 219 218 220 230 242 236 239 237 238 230 223 227 229 227 237 241 244 256 285 299 300 306 306 304
214 214 216 218 220 219 221 223 224 218 223 234 248 244 234 241 247 232 227 229 223 226 230 235 232 248 293 292 305 300 305 308
212 217 218 221 221 224 226 230 225 227 225 236 246 232 239 240 246 239 233 225 222 223 227 237 265 292 281 283 296 301 300 306
213 216 217 219 218 225 223 231 230 233 234 238 236 230 237 236 237 230 223 221 219 222 231 258 269 274 288 312 303 303 306 308
216 217 219 223 226 226 228 231 236 238 231 238 228 238 238 231 237 233 221 222 235 240 252 259 280 300 309 306 307 307 307 312
208 217 222 227 228 233 234 233 229 226 230 232 234 241 228 229 237 233 233 239 239 252 264 277 273 289 293 310 315 309 305 309
204 206 212 219 228 232 230 228 225 223 228 235 247 225 224 240 226 228 231 234 246 255 253 257 280 277 305 316 312 307 306 310
215 215 217 224 229 233 232 230 233 239 238 240 225 226 238 228 226 230 235 234 249 251 271 267 285 311 314 313 314 311 312 311
227 226 227 236 234 235 245 244 237 232 235 223 226 230 220 225 229 229 225 237 242 265 241 269 299 296 304 306 306 306 309 305
241 238 237 237 237 241 243 237 232 223 218 218 223 218 219 221 218 226 236 222 187 204 230 282 293 299 292 298 304 306 302 296
124 256 257 254 247 245 245 241 224 217 218 219 215 209 210 211 211 207 201 191 216 280 277 287 292 281 296 299 301 301 296 291
113 106 119 241 250 249 243 240 227 221 214 205 201 203 202 199 196 185 245 295 293 289 303 285 287 284 292 296 297 295 296 289
86 97 144 202 227 229 226 218 209 204 201 195 195 197 195 181 170 315 311 298 295 292 286 286 287 292 297 297 295 291 288 285
Height
1516 1520 1523 1526 1529 1531 1534 1537 1539 1544 1546 1549 1550 1552 1555 1556 1557 1558 1558 1561 1560 1561 1562 1564 1563 1564 1565 1562 1563 1560 1556 1556
1515 1518 1522 1525 1527 1529 1532 1534 1537 1541 1543 1545 1547 1548 1550 1554 1555 1556 1558 1558 1558 1558 1561 1562 1561 1560 1560 1560 1559 1558 1555 1554
1512 1516 1519 1521 1524 1526 1529 1532 1536 1538 1541 1543 1545 1547 1550 1552 1552 1553 1554 1555 1555 1557 1559 1559 1559 1557 1556 1557 1556 1555 1555 1554
1507 1510 1513 1517 1520 1522 1525 1529 1532 1534 1538 1542 1544 1545 1547 1548 1548 1550 1550 1551 1553 1557 1556 1556 1555 1554 1554 1555 1554 1553 1551 1550
1504 1506 1509 1510 1511 1517 1521 1524 1527 1531 1535 1538 1539 1541 1542 1544 1546 1547 1547 1550 1552 1554 1554 1553 1553 1553 1553 1554 1553 1553 1551 1548
1497 1499 1501 1504 1512 1515 1518 1521 1524 1528 1531 1534 1535 1537 1539 1543 1543 1544 1546 1548 1550 1551 1552 1553 1553 1553 1551 1550 1547 1548 1548 1547
1494 1498 1502 1504 1509 1513 1516 1519 1521 1525 1529 1531 1532 1533 1537 1538 1539 1540 1543 1545 1546 1548 1549 1549 1549 1550 1549 1547 1547 1546 1545 1543
1488 1492 1497 1500 1503 1508 1513 1517 1519 1522 1524 1526 1527 1528 1532 1535 1536 1537 1539 1541 1543 1544 1545 1548 1545 1542 1543 1545 1542 1540 1541 1539
1483 1487 1491 1494 1499 1506 1510 1512 1514 1518 1519 1521 1523 1525 1528 1531 1534 1536 1536 1537 1538 1538 1539 1536 1540 1542 1541 1539 1539 1537 1535 1534
1479 1484 1488 1492 1498 1500 1504 1507 1511 1513 1515 1516 1517 1520 1524 1526 1529 1531 1533 1534 1534 1534 1532 1536 1536 1535 1537 1536 1534 1533 1530 1530
1478 1481 1486 1490 1494 1498 1500 1503 1506 1509 1510 1511 1513 1516 1518 1521 1525 1526 1527 1527 1527 1527 1529 1530 1531 1530 1530 1531 1530 1528 1527 1526
1477 1480 1484 1488 1491 1494 1497 1499 1501 1503 1505 1506 1509 1509 1512 1515 1518 1519 1520 1523 1521 1526 1526 1525 1526 1525 1527 1526 1524 1522 1521 1520
1475 1478 1481 1485 1488 1490 1491 1494 1496 1499 1501 1502 1503 1506 1509 1510 1512 1514 1516 1517 1520 1520 1521 1521 1521 1523 1522 1520 1518 1517 1516 1514
1474 1477 1479 1481 1483 1484 1487 1491 1494 1496 1498 1498 1500 1503 1505 1507 1509 1513 1516 1516 1517 1519 1519 1520 1521 1521 1519 1517 1515 1513 1512 1510
1473 1475 1477 1479 1479 1483 1486 1488 1490 1492 1493 1496 1499 1502 1504 1507 1510 1510 1510 1512 1512 1515 1516 1516 1517 1516 1514 1511 1509 1507 1505 1505
1470 1473 1475 1476 1477 1480 1482 1485 1488 1489 1492 1495 1497 1500 1503 1506 1506 1511 1512 1508 1509 1511 1511 1512 1513 1511 1508 1505 1504 1502 1501 1499
1470 1472 1473 1475 1476 1478 1480 1483 1485 1488 1491 1493 1497 1500 1502 1503 1505 1504 1505 1503 1506 1508 1506 1504 1504 1504 1504 1502 1500 1497 1495 1494
1471 1473 1473 1473 1475 1477 1479 1481 1484 1487 1489 1493 1495 1497 1498 1499 1500 1502 1504 1504 1502 1501 1501 1501 1500 1499 1498 1495 1493 1490 1489 1487
1474 1474 1474 1474 1475 1477 1478 1480 1482 1485 1488 1490 1492 1492 1494 1497 1500 1502 1499 1499 1497 1496 1497 1497 1494 1493 1491 1489 1487 1484 1481 1480